Location: ??
(35.4627°N, 139.3695°E)
Time: 05:19:04
(UTC+00:00)

PSLV R/B - Pass Details

Date: 25 November 2020
Orbit: 503 x 578 km, 97.8° (Epoch: 20 January)

Event Time Altitude Azimuth Distance (km) Brightness Sun altitude
Rises 20:22:16 0° 13° (NNE) 2,708 7.3 -13.4°
Reaches altitude 10° 20:24:25 10° 14° (NNE) 1,798 6.4 -13.0°
Maximum altitude 20:28:17 82° 101° (ESE) 537 3.8 -12.3°
Drops below altitude 10° 20:32:03 10° 190° (S) 1,742 6.5 -11.5°
Sets 20:34:06 0° 191° (SSW) 2,615 7.4 -11.1°
